CCA351 WBKK-ZGSZ

Flight info

Callsign CCA351
Flight time N/A
Altitude FL390
Route ENBA1H ENBAX M522 VINIK M754 AKOTA A583 BIGEX A461 BEKOL BEKOL1
Aircraft B744/H-CGHLRTWZ/CB1D1

Departure

Time N/A
Airport Kota Kinabalu International Airport (WBKK)

Arrival

Time 2026-04-20 13:48
Airport Shenzhen Bao'an International Airport (ZGSZ)
Time Latitude Longitude Altitude Speed Heading
2026-04-20 12:42 16.98714 116.92684 38994 ft 510 kts 331°
2026-04-20 12:42 17.05009 116.89317 38994 ft 510 kts 331°
2026-04-20 12:43 17.11306 116.85946 38994 ft 510 kts 331°
2026-04-20 12:43 17.17601 116.82574 38994 ft 509 kts 331°
2026-04-20 12:44 17.23896 116.79199 38994 ft 509 kts 331°
2026-04-20 12:44 17.30194 116.75820 38994 ft 509 kts 331°
2026-04-20 12:45 17.36482 116.72443 38994 ft 509 kts 331°
2026-04-20 12:45 17.42779 116.69060 38994 ft 509 kts 331°
2026-04-20 12:46 17.49073 116.65675 38994 ft 509 kts 331°
2026-04-20 12:46 17.55368 116.62295 38994 ft 509 kts 331°
2026-04-20 12:47 17.61656 116.58905 38994 ft 509 kts 331°
2026-04-20 12:47 17.67939 116.55515 38994 ft 509 kts 331°
2026-04-20 12:48 17.74229 116.52119 38994 ft 509 kts 331°
2026-04-20 12:48 17.80517 116.48722 38994 ft 509 kts 331°
2026-04-20 12:49 17.86804 116.45325 38994 ft 509 kts 331°
2026-04-20 12:49 17.93089 116.41923 38994 ft 509 kts 331°
2026-04-20 12:50 17.99371 116.38519 38994 ft 509 kts 331°
2026-04-20 12:50 18.05651 116.35113 38994 ft 509 kts 331°
2026-04-20 12:51 18.11937 116.31712 38994 ft 509 kts 331°
2026-04-20 12:51 18.18222 116.28307 38994 ft 509 kts 331°
2026-04-20 12:52 18.24500 116.24900 38994 ft 509 kts 331°
2026-04-20 12:52 18.30785 116.21485 38994 ft 509 kts 331°
2026-04-20 12:53 18.37065 116.18069 38994 ft 509 kts 331°
2026-04-20 12:53 18.43341 116.14653 38994 ft 509 kts 331°
2026-04-20 12:54 18.49619 116.11232 38994 ft 509 kts 331°
2026-04-20 12:54 18.55893 116.07811 38994 ft 509 kts 331°
2026-04-20 12:55 18.61944 116.04509 38994 ft 509 kts 331°
2026-04-20 12:55 18.68214 116.01085 38994 ft 509 kts 331°
2026-04-20 12:56 18.74490 115.97662 38994 ft 509 kts 331°
2026-04-20 12:56 18.80762 115.94230 38994 ft 509 kts 331°
2026-04-20 12:57 18.87035 115.90791 38994 ft 509 kts 331°
2026-04-20 12:57 18.93305 115.87352 38994 ft 509 kts 331°
2026-04-20 12:58 18.99572 115.83911 38994 ft 509 kts 331°
2026-04-20 12:58 19.05845 115.80473 38994 ft 509 kts 331°
2026-04-20 12:59 19.12112 115.77031 38994 ft 509 kts 331°
2026-04-20 12:59 19.18378 115.73584 38994 ft 509 kts 331°
2026-04-20 13:00 19.24641 115.70136 38994 ft 509 kts 331°
2026-04-20 13:00 19.30911 115.66687 38994 ft 509 kts 331°
2026-04-20 13:01 19.37176 115.63246 38994 ft 509 kts 331°
2026-04-20 13:01 19.43445 115.59795 38994 ft 509 kts 331°
2026-04-20 13:02 19.49709 115.56340 38994 ft 509 kts 331°
2026-04-20 13:02 19.55969 115.52884 38994 ft 509 kts 331°
2026-04-20 13:03 19.62231 115.49423 38994 ft 508 kts 331°
2026-04-20 13:03 19.68492 115.45960 38994 ft 508 kts 331°
2026-04-20 13:04 19.74753 115.42494 38994 ft 508 kts 331°
2026-04-20 13:04 19.81009 115.39027 38994 ft 508 kts 331°
2026-04-20 13:05 19.87269 115.35555 38994 ft 508 kts 330°
2026-04-20 13:05 19.93527 115.32081 38994 ft 508 kts 330°
2026-04-20 13:06 19.99779 115.28606 38994 ft 508 kts 330°
2026-04-20 13:06 20.06035 115.25127 38994 ft 508 kts 330°
2026-04-20 13:07 20.12290 115.21646 38994 ft 508 kts 330°
2026-04-20 13:07 20.18539 115.18164 38994 ft 508 kts 330°
2026-04-20 13:08 20.24793 115.14676 38994 ft 508 kts 330°
2026-04-20 13:08 20.31041 115.11188 38994 ft 508 kts 330°
2026-04-20 13:09 20.37287 115.07699 38994 ft 508 kts 330°
2026-04-20 13:09 20.43538 115.04204 38994 ft 508 kts 330°
2026-04-20 13:10 20.49785 115.00707 38994 ft 508 kts 330°
2026-04-20 13:10 20.56033 114.97206 38994 ft 508 kts 330°
2026-04-20 13:11 20.62277 114.93705 38994 ft 508 kts 330°
2026-04-20 13:11 20.68519 114.90201 38994 ft 508 kts 330°
2026-04-20 13:12 20.74768 114.86691 38994 ft 508 kts 330°
2026-04-20 13:12 20.81008 114.83182 38994 ft 508 kts 330°
2026-04-20 13:13 20.87251 114.79668 38994 ft 508 kts 330°
2026-04-20 13:13 20.90365 114.77913 38863 ft 506 kts 330°
2026-04-20 13:13 20.93439 114.76181 38534 ft 496 kts 330°
2026-04-20 13:13 20.96456 114.74480 38208 ft 487 kts 330°
2026-04-20 13:14 20.99425 114.72806 37881 ft 480 kts 330°
2026-04-20 13:14 21.02349 114.71156 37556 ft 475 kts 330°
2026-04-20 13:14 21.05249 114.69519 37252 ft 469 kts 328°
2026-04-20 13:14 21.08104 114.67906 36924 ft 460 kts 328°
2026-04-20 13:15 21.10898 114.66327 36598 ft 453 kts 328°
2026-04-20 13:15 21.13667 114.64762 36272 ft 448 kts 328°
2026-04-20 13:15 21.16407 114.63212 35946 ft 444 kts 328°
2026-04-20 13:15 21.19119 114.61678 35621 ft 440 kts 328°
2026-04-20 13:16 21.21820 114.60149 35295 ft 438 kts 328°
2026-04-20 13:16 21.24501 114.58631 34968 ft 436 kts 328°
2026-04-20 13:16 21.27163 114.57123 34617 ft 431 kts 328°
2026-04-20 13:16 21.29797 114.55630 34266 ft 427 kts 328°
2026-04-20 13:17 21.32401 114.54154 33916 ft 423 kts 328°
2026-04-20 13:17 21.34985 114.52688 33566 ft 420 kts 328°
2026-04-20 13:17 21.37552 114.51232 33215 ft 416 kts 328°
2026-04-20 13:17 21.40099 114.49786 32864 ft 413 kts 328°
2026-04-20 13:18 21.42623 114.48353 32514 ft 411 kts 328°
2026-04-20 13:18 21.45145 114.46920 32163 ft 409 kts 328°
2026-04-20 13:18 21.47653 114.45495 31814 ft 408 kts 328°
2026-04-20 13:18 21.50147 114.44077 31465 ft 406 kts 328°
2026-04-20 13:19 21.52636 114.42661 31114 ft 404 kts 328°
2026-04-20 13:19 21.55107 114.41255 30764 ft 401 kts 328°
2026-04-20 13:19 21.57560 114.39859 30413 ft 398 kts 328°
2026-04-20 13:19 21.59992 114.38474 30063 ft 395 kts 328°
2026-04-20 13:20 21.62405 114.37100 29714 ft 393 kts 328°
2026-04-20 13:20 21.64808 114.35730 29363 ft 390 kts 328°
2026-04-20 13:20 21.67195 114.34370 29012 ft 387 kts 328°
2026-04-20 13:20 21.69560 114.33021 28663 ft 385 kts 328°
2026-04-20 13:21 21.71914 114.31678 28312 ft 382 kts 328°
2026-04-20 13:21 21.74251 114.30344 27962 ft 380 kts 328°
2026-04-20 13:21 21.76578 114.29015 27612 ft 378 kts 328°
2026-04-20 13:21 21.78891 114.27695 27261 ft 376 kts 328°
2026-04-20 13:22 21.81183 114.26385 26912 ft 373 kts 328°
2026-04-20 13:22 21.83462 114.25082 26561 ft 370 kts 328°
2026-04-20 13:22 21.85723 114.23790 26211 ft 368 kts 327°
2026-04-20 13:22 21.87973 114.22503 25860 ft 365 kts 327°
2026-04-20 13:23 21.90206 114.21225 25510 ft 363 kts 327°
2026-04-20 13:23 21.92426 114.19955 25161 ft 361 kts 327°
2026-04-20 13:23 21.94636 114.18694 24811 ft 359 kts 327°
2026-04-20 13:23 21.96825 114.17445 24462 ft 356 kts 327°
2026-04-20 13:24 21.99000 114.16200 24112 ft 353 kts 327°
2026-04-20 13:24 22.01159 114.14962 23761 ft 351 kts 328°
2026-04-20 13:24 22.03298 114.13735 23412 ft 348 kts 328°
2026-04-20 13:24 22.05272 114.12602 23086 ft 345 kts 328°
2026-04-20 13:25 22.07381 114.11390 22736 ft 343 kts 328°
2026-04-20 13:25 22.09466 114.10191 22384 ft 339 kts 328°
2026-04-20 13:25 22.11534 114.09003 22005 ft 335 kts 328°
2026-04-20 13:25 22.13567 114.07833 21628 ft 330 kts 328°
2026-04-20 13:26 22.15576 114.06678 21251 ft 325 kts 328°
2026-04-20 13:26 22.17555 114.05539 20875 ft 321 kts 328°
2026-04-20 13:26 22.19504 114.04423 20501 ft 317 kts 329°
2026-04-20 13:26 22.21588 114.03690 20141 ft 318 kts 349°
2026-04-20 13:27 22.23790 114.03757 19769 ft 319 kts
2026-04-20 13:27 22.25975 114.04191 19394 ft 320 kts
2026-04-20 13:27 22.28109 114.04803 19021 ft 318 kts 13°
2026-04-20 13:27 22.30213 114.05508 18644 ft 315 kts 14°
2026-04-20 13:28 22.32283 114.06224 18269 ft 311 kts 14°
2026-04-20 13:28 22.34244 114.06881 17911 ft 308 kts 13°
2026-04-20 13:28 22.36374 114.07579 17519 ft 305 kts 13°
2026-04-20 13:28 22.38393 114.08232 17144 ft 302 kts 13°
2026-04-20 13:29 22.40383 114.08871 16805 ft 297 kts 13°
2026-04-20 13:29 22.42345 114.09500 16488 ft 294 kts 13°
2026-04-20 13:29 22.44296 114.10124 16142 ft 292 kts 13°
2026-04-20 13:29 22.46244 114.10747 15717 ft 291 kts 13°
2026-04-20 13:30 22.48167 114.11362 15330 ft 288 kts 13°
2026-04-20 13:30 22.50079 114.11973 14954 ft 287 kts 13°
2026-04-20 13:30 22.51988 114.12582 14579 ft 285 kts 13°
2026-04-20 13:30 22.53914 114.12956 14201 ft 281 kts 356°
2026-04-20 13:31 22.55805 114.12589 13862 ft 275 kts 340°
2026-04-20 13:31 22.57563 114.11843 13496 ft 270 kts 332°
2026-04-20 13:31 22.59239 114.10954 13122 ft 267 kts 329°
2026-04-20 13:31 22.60885 114.10039 12747 ft 266 kts 329°
2026-04-20 13:32 22.62526 114.09149 12373 ft 265 kts 330°
2026-04-20 13:32 22.64182 114.08282 11997 ft 263 kts 331°
2026-04-20 13:32 22.65802 114.07380 11623 ft 262 kts 327°
2026-04-20 13:32 22.67326 114.06324 11252 ft 259 kts 322°
2026-04-20 13:33 22.68796 114.05215 10877 ft 257 kts 321°
2026-04-20 13:33 22.70193 114.04032 10500 ft 254 kts 312°
2026-04-20 13:33 22.71158 114.02462 10154 ft 249 kts 294°
2026-04-20 13:33 22.71748 114.00713 9794 ft 246 kts 285°
2026-04-20 13:34 22.72161 113.98926 9421 ft 245 kts 280°
2026-04-20 13:34 22.72614 113.97165 9044 ft 245 kts 290°
2026-04-20 13:34 22.73684 113.95744 8671 ft 250 kts 317°
2026-04-20 13:34 22.75217 113.94810 8298 ft 255 kts 330°
2026-04-20 13:35 22.76838 113.94031 7923 ft 256 kts 333°
2026-04-20 13:35 22.78487 113.93297 7548 ft 257 kts 334°
2026-04-20 13:35 22.80131 113.92569 7170 ft 254 kts 334°
2026-04-20 13:35 22.81741 113.91853 6794 ft 249 kts 334°
2026-04-20 13:36 22.83312 113.91101 6418 ft 246 kts 332°
2026-04-20 13:36 22.84853 113.90340 6095 ft 242 kts 332°
2026-04-20 13:36 22.86381 113.89583 5779 ft 243 kts 332°
2026-04-20 13:36 22.87910 113.88820 5409 ft 243 kts 332°
2026-04-20 13:37 22.89439 113.88048 5034 ft 242 kts 332°
2026-04-20 13:37 22.90957 113.87275 4659 ft 241 kts 332°
2026-04-20 13:37 22.92468 113.86499 4285 ft 240 kts 332°
2026-04-20 13:37 22.93969 113.85721 3910 ft 239 kts 332°
2026-04-20 13:38 22.95457 113.84919 3533 ft 238 kts 329°
2026-04-20 13:38 22.96651 113.83768 3161 ft 224 kts 302°
2026-04-20 13:38 22.97052 113.82235 3051 ft 209 kts 268°
2026-04-20 13:38 22.96753 113.80728 3019 ft 203 kts 249°
2026-04-20 13:39 22.96290 113.79295 2985 ft 200 kts 246°
2026-04-20 13:39 22.95793 113.77900 2999 ft 197 kts 244°
2026-04-20 13:39 22.95292 113.76519 2999 ft 197 kts 244°
2026-04-20 13:39 22.94790 113.75135 3004 ft 198 kts 244°
2026-04-20 13:40 22.94288 113.73752 3048 ft 197 kts 244°
2026-04-20 13:40 22.93786 113.72368 3024 ft 198 kts 244°
2026-04-20 13:40 22.93284 113.70984 3002 ft 197 kts 244°
2026-04-20 13:40 22.92782 113.69599 3000 ft 197 kts 244°
2026-04-20 13:41 22.92282 113.68218 3000 ft 197 kts 244°
2026-04-20 13:41 22.91622 113.66930 2990 ft 195 kts 229°
2026-04-20 13:41 22.90462 113.66307 2980 ft 188 kts 187°
2026-04-20 13:41 22.89226 113.66665 3016 ft 187 kts 158°
2026-04-20 13:42 22.88106 113.67383 3001 ft 188 kts 150°
2026-04-20 13:42 22.85891 113.68885 3000 ft 188 kts 150°
2026-04-20 13:42 22.84755 113.69585 3000 ft 188 kts 152°
2026-04-20 13:43 22.83598 113.70252 3000 ft 189 kts 154°
2026-04-20 13:43 22.82437 113.70900 3000 ft 188 kts 154°
2026-04-20 13:43 22.81269 113.71545 3000 ft 188 kts 154°
2026-04-20 13:43 22.80107 113.72185 2997 ft 185 kts 154°
2026-04-20 13:44 22.79024 113.72782 3001 ft 165 kts 154°
2026-04-20 13:44 22.78072 113.73305 2839 ft 146 kts 154°
2026-04-20 13:44 22.77193 113.73788 2588 ft 139 kts 154°
2026-04-20 13:44 22.76349 113.74251 2401 ft 136 kts 154°
2026-04-20 13:45 22.75505 113.74715 2227 ft 137 kts 154°
2026-04-20 13:45 22.74659 113.75180 2048 ft 137 kts 154°
2026-04-20 13:45 22.73813 113.75644 1867 ft 136 kts 154°
2026-04-20 13:45 22.72971 113.76106 1685 ft 136 kts 154°
2026-04-20 13:46 22.72126 113.76570 1503 ft 137 kts 153°
2026-04-20 13:46 22.71279 113.77035 1324 ft 137 kts 153°
2026-04-20 13:46 22.70428 113.77502 1141 ft 138 kts 152°
2026-04-20 13:46 22.69570 113.77973 958 ft 139 kts 152°
2026-04-20 13:47 22.68707 113.78446 773 ft 139 kts 152°
2026-04-20 13:47 22.67849 113.78916 589 ft 139 kts 153°
2026-04-20 13:47 22.66990 113.79392 399 ft 138 kts 153°
2026-04-20 13:47 22.66130 113.79871 262 ft 140 kts 153°
2026-04-20 13:48 22.65266 113.80344 82 ft 139 kts 153°
2026-04-20 13:48 22.64440 113.80787 28 ft 123 kts 153°
2026-04-20 13:48 22.63883 113.81092 27 ft 57 kts 153°
2026-04-20 13:48 22.63703 113.81190 27 ft 19 kts 153°
2026-04-20 13:49 22.63581 113.81241 27 ft 18 kts 166°
2026-04-20 13:49 22.63458 113.81257 27 ft 17 kts 180°
2026-04-20 13:49 22.63339 113.81251 27 ft 17 kts 183°
2026-04-20 13:49 22.63228 113.81248 27 ft 16 kts 176°
2026-04-20 13:50 22.63129 113.81223 27 ft 15 kts 214°
2026-04-20 13:50 22.63048 113.81158 27 ft 14 kts 230°
2026-04-20 13:50 22.63012 113.81110 27 ft 0 kts 231°